SQS231 WICC-WIHH

Flight info

Callsign SQS231
Flight time 0h 32m
Altitude 8000
Route PW1M PW PW1F
Aircraft C208/L-VGD/C

Departure

Time 2026-04-19 03:10
Airport Husein Sastranegara International Airport (WICC)

Arrival

Time 2026-04-19 03:42
Airport Halim Perdanakusuma International Airport (WIHH)
Time Latitude Longitude Altitude Speed Heading
2026-04-19 02:57 -6.90303 107.57955 2412 ft 0 kts 189°
2026-04-19 03:06 -6.90305 107.57953 2409 ft 2 kts 251°
2026-04-19 03:07 -6.90291 107.57984 2413 ft 13 kts 101°
2026-04-19 03:07 -6.90273 107.58062 2422 ft 9 kts 19°
2026-04-19 03:07 -6.90212 107.58056 2419 ft 8 kts 288°
2026-04-19 03:07 -6.90211 107.58054 2419 ft 0 kts 288°
2026-04-19 03:08 -6.90201 107.58024 2419 ft 20 kts 289°
2026-04-19 03:08 -6.90105 107.57744 2416 ft 62 kts 289°
2026-04-19 03:08 -6.89929 107.57241 2438 ft 84 kts 290°
2026-04-19 03:09 -6.89733 107.56692 2546 ft 83 kts 288°
2026-04-19 03:09 -6.89518 107.56183 2677 ft 78 kts 311°
2026-04-19 03:09 -6.89064 107.56206 2719 ft 75 kts 52°
2026-04-19 03:09 -6.88587 107.56432 2850 ft 80 kts 24°
2026-04-19 03:10 -6.88045 107.56633 2942 ft 91 kts 356°
2026-04-19 03:10 -6.87435 107.56421 3106 ft 96 kts 347°
2026-04-19 03:10 -6.86781 107.56230 3277 ft 100 kts 342°
2026-04-19 03:10 -6.86089 107.55993 3447 ft 109 kts 343°
2026-04-19 03:11 -6.85355 107.55730 3609 ft 114 kts 342°
2026-04-19 03:11 -6.84616 107.55455 3818 ft 110 kts 341°
2026-04-19 03:11 -6.83921 107.55194 4037 ft 103 kts 341°
2026-04-19 03:11 -6.83262 107.54947 4243 ft 99 kts 341°
2026-04-19 03:12 -6.82620 107.54708 4439 ft 98 kts 342°
2026-04-19 03:12 -6.82009 107.54470 4638 ft 93 kts 341°
2026-04-19 03:12 -6.81412 107.54248 4808 ft 90 kts 343°
2026-04-19 03:12 -6.80828 107.54030 4981 ft 91 kts 343°
2026-04-19 03:13 -6.80235 107.53808 5152 ft 88 kts 340°
2026-04-19 03:13 -6.79632 107.53587 5283 ft 97 kts 342°
2026-04-19 03:13 -6.78965 107.53349 5438 ft 105 kts 342°
2026-04-19 03:13 -6.78261 107.53086 5601 ft 111 kts 341°
2026-04-19 03:14 -6.77495 107.52801 5764 ft 123 kts 342°
2026-04-19 03:14 -6.76685 107.52496 5918 ft 125 kts 342°
2026-04-19 03:14 -6.75873 107.52193 6060 ft 124 kts 341°
2026-04-19 03:14 -6.75061 107.51888 6191 ft 125 kts 341°
2026-04-19 03:15 -6.74235 107.51579 6320 ft 128 kts 341°
2026-04-19 03:15 -6.73390 107.51263 6448 ft 131 kts 341°
2026-04-19 03:15 -6.72530 107.50941 6567 ft 133 kts 341°
2026-04-19 03:15 -6.71677 107.50624 6684 ft 132 kts 341°
2026-04-19 03:16 -6.70806 107.50297 6808 ft 136 kts 342°
2026-04-19 03:16 -6.69913 107.49968 6928 ft 137 kts 341°
2026-04-19 03:16 -6.69022 107.49635 7047 ft 136 kts 342°
2026-04-19 03:16 -6.68133 107.49300 7167 ft 137 kts 341°
2026-04-19 03:17 -6.67243 107.48965 7263 ft 135 kts 342°
2026-04-19 03:17 -6.66369 107.48639 7377 ft 133 kts 342°
2026-04-19 03:17 -6.65505 107.48315 7488 ft 133 kts 342°
2026-04-19 03:17 -6.64635 107.47993 7616 ft 132 kts 342°
2026-04-19 03:18 -6.63766 107.47666 7723 ft 133 kts 342°
2026-04-19 03:18 -6.62906 107.47334 7843 ft 132 kts 340°
2026-04-19 03:18 -6.62048 107.47008 7951 ft 132 kts 341°
2026-04-19 03:18 -6.61171 107.46681 7949 ft 135 kts 342°
2026-04-19 03:19 -6.60283 107.46351 7949 ft 137 kts 342°
2026-04-19 03:19 -6.59396 107.46017 7949 ft 136 kts 341°
2026-04-19 03:19 -6.58503 107.45684 7952 ft 138 kts 341°
2026-04-19 03:19 -6.57610 107.45349 7951 ft 136 kts 342°
2026-04-19 03:20 -6.56721 107.45018 7949 ft 136 kts 341°
2026-04-19 03:20 -6.55859 107.44636 7949 ft 138 kts 339°
2026-04-19 03:20 -6.54974 107.44266 7950 ft 138 kts 339°
2026-04-19 03:20 -6.54089 107.43888 7951 ft 139 kts 340°
2026-04-19 03:21 -6.53200 107.43509 7955 ft 139 kts 339°
2026-04-19 03:21 -6.52331 107.43135 7979 ft 135 kts 339°
2026-04-19 03:21 -6.51457 107.42764 7981 ft 138 kts 340°
2026-04-19 03:21 -6.50561 107.42386 7985 ft 140 kts 340°
2026-04-19 03:22 -6.49663 107.42001 7990 ft 140 kts 339°
2026-04-19 03:22 -6.48767 107.41615 7991 ft 141 kts 339°
2026-04-19 03:22 -6.47879 107.41234 7991 ft 140 kts 339°
2026-04-19 03:22 -6.46987 107.40852 7992 ft 139 kts 339°
2026-04-19 03:23 -6.46091 107.40467 7989 ft 140 kts 339°
2026-04-19 03:23 -6.45193 107.40081 7991 ft 140 kts 339°
2026-04-19 03:23 -6.44294 107.39696 7990 ft 140 kts 339°
2026-04-19 03:23 -6.43395 107.39311 7993 ft 140 kts 339°
2026-04-19 03:24 -6.42497 107.38926 7994 ft 140 kts 339°
2026-04-19 03:24 -6.41603 107.38541 7992 ft 139 kts 339°
2026-04-19 03:24 -6.41016 107.38290 7991 ft 138 kts 340°
2026-04-19 03:24 -6.40131 107.37912 7990 ft 138 kts 339°
2026-04-19 03:25 -6.39243 107.37530 7989 ft 139 kts 339°
2026-04-19 03:25 -6.38064 107.37025 7978 ft 139 kts 339°
2026-04-19 03:25 -6.37173 107.36642 7980 ft 139 kts 339°
2026-04-19 03:25 -6.36570 107.36385 7980 ft 140 kts 339°
2026-04-19 03:26 -6.35676 107.36001 7982 ft 140 kts 339°
2026-04-19 03:26 -6.34792 107.35622 7981 ft 140 kts 339°
2026-04-19 03:26 -6.33898 107.35239 7982 ft 139 kts 339°
2026-04-19 03:26 -6.33006 107.34856 7979 ft 139 kts 339°
2026-04-19 03:27 -6.32112 107.34473 7983 ft 140 kts 339°
2026-04-19 03:27 -6.31215 107.34089 7982 ft 140 kts 339°
2026-04-19 03:27 -6.30319 107.33705 7981 ft 140 kts 339°
2026-04-19 03:27 -6.29426 107.33321 7982 ft 139 kts 339°
2026-04-19 03:28 -6.28532 107.32939 7983 ft 140 kts 339°
2026-04-19 03:28 -6.27634 107.32554 7982 ft 140 kts 339°
2026-04-19 03:28 -6.26746 107.32174 7979 ft 141 kts 339°
2026-04-19 03:28 -6.25843 107.31786 7979 ft 141 kts 339°
2026-04-19 03:29 -6.24941 107.31400 7981 ft 141 kts 339°
2026-04-19 03:29 -6.24039 107.31013 7978 ft 141 kts 339°
2026-04-19 03:29 -6.23137 107.30627 7978 ft 141 kts 339°
2026-04-19 03:29 -6.22237 107.30241 7978 ft 141 kts 339°
2026-04-19 03:30 -6.21337 107.29855 7977 ft 141 kts 339°
2026-04-19 03:30 -6.20442 107.29456 7975 ft 141 kts 332°
2026-04-19 03:30 -6.19788 107.28726 7974 ft 144 kts 296°
2026-04-19 03:30 -6.19599 107.27749 7975 ft 144 kts 268°
2026-04-19 03:31 -6.19619 107.26746 7976 ft 144 kts 270°
2026-04-19 03:31 -6.19619 107.25740 7994 ft 142 kts 269°
2026-04-19 03:31 -6.19622 107.24714 7845 ft 153 kts 269°
2026-04-19 03:31 -6.19624 107.23605 7624 ft 163 kts 269°
2026-04-19 03:32 -6.19628 107.22451 7405 ft 167 kts 269°
2026-04-19 03:32 -6.19635 107.21270 7182 ft 170 kts 269°
2026-04-19 03:32 -6.19639 107.20076 6958 ft 171 kts 269°
2026-04-19 03:32 -6.19644 107.18876 6731 ft 172 kts 269°
2026-04-19 03:33 -6.19648 107.17687 6507 ft 172 kts 269°
2026-04-19 03:33 -6.19651 107.16484 6277 ft 172 kts 269°
2026-04-19 03:33 -6.19656 107.15284 6033 ft 171 kts 269°
2026-04-19 03:33 -6.19660 107.14089 5790 ft 171 kts 269°
2026-04-19 03:34 -6.19663 107.12894 5547 ft 170 kts 269°
2026-04-19 03:34 -6.19667 107.11707 5308 ft 170 kts 269°
2026-04-19 03:34 -6.19671 107.10521 5070 ft 169 kts 269°
2026-04-19 03:34 -6.19675 107.09331 4765 ft 172 kts 269°
2026-04-19 03:35 -6.19679 107.08174 4387 ft 156 kts 269°
2026-04-19 03:35 -6.19686 107.07131 4002 ft 144 kts 269°
2026-04-19 03:35 -6.19690 107.06143 3602 ft 140 kts 269°
2026-04-19 03:35 -6.19694 107.05179 3171 ft 140 kts 269°
2026-04-19 03:36 -6.19699 107.04204 2732 ft 138 kts 267°
2026-04-19 03:36 -6.20063 107.03334 2288 ft 136 kts 232°
2026-04-19 03:36 -6.20622 107.02597 1968 ft 129 kts 236°
2026-04-19 03:36 -6.21052 107.01838 1718 ft 121 kts 244°
2026-04-19 03:37 -6.21426 107.01123 1531 ft 111 kts 242°
2026-04-19 03:37 -6.21809 107.00474 1383 ft 105 kts 240°
2026-04-19 03:37 -6.22204 106.99843 1320 ft 107 kts 239°
2026-04-19 03:37 -6.22583 106.99218 1300 ft 105 kts 243°
2026-04-19 03:38 -6.22890 106.98554 1238 ft 107 kts 248°
2026-04-19 03:38 -6.23202 106.97851 1166 ft 111 kts 246°
2026-04-19 03:38 -6.23503 106.97144 1140 ft 108 kts 256°
2026-04-19 03:38 -6.23679 106.96441 1152 ft 100 kts 258°
2026-04-19 03:39 -6.23831 106.95775 1054 ft 95 kts 262°
2026-04-19 03:39 -6.24029 106.95154 958 ft 93 kts 245°
2026-04-19 03:39 -6.24307 106.94573 880 ft 93 kts 247°
2026-04-19 03:39 -6.24512 106.93967 853 ft 91 kts 255°
2026-04-19 03:40 -6.24689 106.93423 845 ft 77 kts 252°
2026-04-19 03:40 -6.24904 106.92924 822 ft 81 kts 247°
2026-04-19 03:40 -6.25146 106.92403 794 ft 83 kts 247°
2026-04-19 03:40 -6.25386 106.91869 719 ft 82 kts 245°
2026-04-19 03:41 -6.25629 106.91353 522 ft 81 kts 244°
2026-04-19 03:41 -6.25863 106.90854 340 ft 79 kts 248°
2026-04-19 03:41 -6.26087 106.90350 179 ft 79 kts 247°
2026-04-19 03:41 -6.26321 106.89849 106 ft 78 kts 248°
2026-04-19 03:42 -6.26529 106.89395 93 ft 58 kts 244°
2026-04-19 03:42 -6.26651 106.89133 95 ft 28 kts 245°
2026-04-19 03:42 -6.26719 106.88984 95 ft 23 kts 245°
2026-04-19 03:42 -6.26715 106.88860 94 ft 16 kts 330°
2026-04-19 03:43 -6.26648 106.88829 95 ft 6 kts 335°
2026-04-19 03:43 -6.26611 106.88811 95 ft 9 kts 335°
2026-04-19 03:43 -6.26617 106.88729 95 ft 20 kts 243°
2026-04-19 03:43 -6.26669 106.88620 93 ft 13 kts 246°
2026-04-19 03:44 -6.26700 106.88550 93 ft 12 kts 246°
2026-04-19 03:44 -6.26713 106.88479 95 ft 8 kts 333°
2026-04-19 03:44 -6.26686 106.88466 93 ft 2 kts 334°
2026-04-19 03:44 -6.26680 106.88463 95 ft 0 kts 335°
2026-04-19 03:45 -6.26678 106.88463 95 ft 0 kts 335°
2026-04-19 03:45 -6.26676 106.88462 94 ft 0 kts 335°